Time,TemperatureF,DewpointF,PressureIn,WindDirection,WindDirectionDegrees,WindSpeedMPH,WindSpeedGustMPH,Humidity,HourlyPrecipIn,Conditions,Clouds,dailyrainin,SoftwareType,DateUTC
2013-01-13 00:03:00,37.0,36.0,29.91,NNW,336,10.0,0.0,96,0.03,,,-99.99,,2013-01-13 05:03:00,
2013-01-13 00:12:00,37.0,36.0,29.91,NNW,336,10.0,0.0,96,0.03,,,-99.99,,2013-01-13 05:12:00,
2013-01-13 00:23:00,36.0,35.0,29.91,North,359,6.0,0.0,98,0.03,,,-99.99,,2013-01-13 05:23:00,
2013-01-13 00:32:00,36.0,35.0,29.91,North,359,6.0,0.0,98,0.03,,,-99.99,,2013-01-13 05:32:00,
2013-01-13 00:42:00,36.0,35.0,29.91,North,359,6.0,0.0,98,0.03,,,-99.99,,2013-01-13 05:42:00,
2013-01-13 00:52:00,36.0,35.0,29.91,North,359,6.0,0.0,98,0.03,,,-99.99,,2013-01-13 05:52:00,
2013-01-13 01:22:00,35.0,35.0,29.86,NE,51,5.0,0.0,100,0.03,,,-99.99,,2013-01-13 06:22:00,
2013-01-13 01:32:00,35.0,35.0,29.86,NE,51,5.0,0.0,100,0.03,,,-99.99,,2013-01-13 06:32:00,
2013-01-13 01:42:00,35.0,35.0,29.86,NE,51,5.0,0.0,100,0.03,,,-99.99,,2013-01-13 06:42:00,
2013-01-13 01:52:00,35.0,35.0,29.86,NE,51,5.0,0.0,100,0.03,,,-99.99,,2013-01-13 06:52:00,
2013-01-13 02:02:00,35.0,35.0,29.86,NNE,18,7.0,0.0,100,0.03,,,-99.99,,2013-01-13 07:02:00,
2013-01-13 02:12:00,35.0,35.0,29.86,NNE,18,7.0,0.0,100,0.03,,,-99.99,,2013-01-13 07:12:00,
2013-01-13 02:22:00,35.0,35.0,29.86,NNE,18,7.0,0.0,100,0.03,,,-99.99,,2013-01-13 07:22:00,
2013-01-13 02:32:00,34.0,34.0,29.86,NNW,347,8.0,0.0,100,0.03,,,-99.99,,2013-01-13 07:32:00,
2013-01-13 02:42:00,34.0,34.0,29.86,NNW,347,8.0,0.0,100,0.03,,,-99.99,,2013-01-13 07:42:00,
2013-01-13 02:53:00,34.0,34.0,29.86,NNW,347,8.0,0.0,100,0.03,,,-99.99,,2013-01-13 07:53:00,
2013-01-13 03:02:00,34.0,34.0,29.86,NNW,347,8.0,0.0,100,0.03,,,-99.99,,2013-01-13 08:02:00,
2013-01-13 03:12:00,34.0,34.0,29.86,NNW,347,8.0,0.0,100,0.03,,,-99.99,,2013-01-13 08:12:00,
2013-01-13 03:22:00,34.0,34.0,29.85,North,8,11.0,0.0,100,0.03,,,-99.99,,2013-01-13 08:22:00,
2013-01-13 03:32:00,34.0,34.0,29.85,North,8,11.0,0.0,100,0.03,,,-99.99,,2013-01-13 08:32:00,
2013-01-13 03:42:00,34.0,34.0,29.85,North,8,11.0,0.0,100,0.03,,,-99.99,,2013-01-13 08:42:00,
2013-01-13 03:52:00,34.0,34.0,29.85,North,8,11.0,0.0,100,0.03,,,-99.99,,2013-01-13 08:52:00,
2013-01-13 04:02:00,33.0,33.0,29.89,North,356,7.0,0.0,100,0.03,,,-99.99,,2013-01-13 09:02:00,
2013-01-13 04:12:00,33.0,33.0,29.89,North,356,7.0,0.0,100,0.03,,,-99.99,,2013-01-13 09:12:00,
2013-01-13 04:22:00,33.0,33.0,29.89,North,356,7.0,0.0,100,0.03,,,-99.99,,2013-01-13 09:22:00,
2013-01-13 04:32:00,33.0,33.0,29.89,North,356,7.0,0.0,100,0.03,,,-99.99,,2013-01-13 09:32:00,
2013-01-13 06:02:00,33.0,33.0,29.83,North,359,0.0,0.0,100,0.03,,,-99.99,,2013-01-13 11:02:00,
2013-01-13 06:12:00,33.0,33.0,29.83,North,359,0.0,0.0,100,0.03,,,-99.99,,2013-01-13 11:12:00,
2013-01-13 06:22:00,33.0,33.0,29.83,North,359,0.0,0.0,100,0.03,,,-99.99,,2013-01-13 11:22:00,
2013-01-13 06:33:00,33.0,33.0,29.83,North,359,0.0,0.0,100,0.03,,,-99.99,,2013-01-13 11:33:00,
2013-01-13 06:42:00,33.0,33.0,29.83,North,359,0.0,0.0,100,0.03,,,-99.99,,2013-01-13 11:42:00,
2013-01-13 06:52:00,33.0,33.0,29.84,North,359,0.0,0.0,100,0.03,,,-99.99,,2013-01-13 11:52:00,
2013-01-13 07:03:00,33.0,33.0,29.84,North,359,0.0,0.0,100,0.03,,,-99.99,,2013-01-13 12:03:00,
2013-01-13 07:12:00,33.0,33.0,29.84,North,359,0.0,0.0,100,0.03,,,-99.99,,2013-01-13 12:12:00,
2013-01-13 07:22:00,33.0,33.0,29.83,North,359,0.0,0.0,100,0.03,,,-99.99,,2013-01-13 12:22:00,
2013-01-13 07:33:00,33.0,33.0,29.84,North,359,0.0,0.0,100,0.03,,,-99.99,,2013-01-13 12:33:00,
2013-01-13 07:42:00,33.0,33.0,29.84,North,359,0.0,0.0,100,0.03,,,-99.99,,2013-01-13 12:42:00,
2013-01-13 07:52:00,33.0,33.0,29.85,North,359,0.0,0.0,100,0.03,,,-99.99,,2013-01-13 12:52:00,
2013-01-13 08:03:00,33.0,33.0,29.88,North,359,0.0,0.0,100,0.03,,,-99.99,,2013-01-13 13:03:00,
2013-01-13 08:12:00,33.0,33.0,29.88,North,359,0.0,0.0,100,0.03,,,-99.99,,2013-01-13 13:12:00,
2013-01-13 08:22:00,33.0,33.0,29.89,North,359,0.0,0.0,100,0.03,,,-99.99,,2013-01-13 13:22:00,
2013-01-13 08:33:00,33.0,33.0,29.88,North,359,0.0,0.0,100,0.03,,,-99.99,,2013-01-13 13:33:00,
2013-01-13 08:42:00,33.0,33.0,29.88,North,359,0.0,0.0,100,0.03,,,-99.99,,2013-01-13 13:42:00,
2013-01-13 08:53:00,33.0,33.0,29.90,North,359,0.0,0.0,100,0.03,,,-99.99,,2013-01-13 13:53:00,
2013-01-13 09:03:00,32.0,32.0,29.90,North,359,0.0,0.0,100,0.03,,,-99.99,,2013-01-13 14:03:00,
2013-01-13 09:12:00,32.0,32.0,29.90,North,359,0.0,0.0,100,0.03,,,-99.99,,2013-01-13 14:12:00,
2013-01-13 09:22:00,32.0,32.0,29.90,North,359,0.0,0.0,100,0.03,,,-99.99,,2013-01-13 14:22:00,
2013-01-13 09:33:00,32.0,32.0,29.89,North,359,0.0,0.0,100,0.03,,,-99.99,,2013-01-13 14:33:00,
2013-01-13 09:42:00,32.0,32.0,29.91,North,359,0.0,0.0,100,0.03,,,-99.99,,2013-01-13 14:42:00,
2013-01-13 09:43:00,32.0,32.0,29.89,North,359,0.0,0.0,100,0.03,,,-99.99,,2013-01-13 14:43:00,
2013-01-13 09:53:00,32.0,32.0,29.91,North,359,0.0,0.0,100,0.03,,,-99.99,,2013-01-13 14:53:00,
2013-01-13 10:03:00,32.0,32.0,29.91,North,359,0.0,0.0,100,0.03,,,-99.99,,2013-01-13 15:03:00,
2013-01-13 10:13:00,32.0,32.0,29.91,North,359,0.0,0.0,100,0.03,,,-99.99,,2013-01-13 15:13:00,
2013-01-13 10:23:00,32.0,32.0,29.91,North,359,0.0,0.0,100,0.03,,,-99.99,,2013-01-13 15:23:00,
2013-01-13 10:33:00,32.0,32.0,29.91,North,359,0.0,0.0,100,0.03,,,-99.99,,2013-01-13 15:33:00,
2013-01-13 11:04:00,31.0,31.0,29.93,North,359,0.0,0.0,100,0.03,,,-99.99,,2013-01-13 16:04:00,
2013-01-13 11:13:00,31.0,31.0,29.93,North,359,0.0,0.0,100,0.03,,,-99.99,,2013-01-13 16:13:00,
2013-01-13 11:23:00,31.0,31.0,29.93,North,359,0.0,0.0,100,0.03,,,-99.99,,2013-01-13 16:23:00,
2013-01-13 11:33:00,31.0,31.0,29.93,North,359,0.0,0.0,100,0.03,,,-99.99,,2013-01-13 16:33:00,
2013-01-13 12:03:00,30.0,30.0,29.91,North,359,0.0,0.0,100,0.03,,,-99.99,,2013-01-13 17:03:00,
2013-01-13 12:13:00,30.0,30.0,29.91,North,359,0.0,0.0,100,0.03,,,-99.99,,2013-01-13 17:13:00,
2013-01-13 12:22:00,30.0,30.0,29.91,North,359,0.0,0.0,100,0.03,,,-99.99,,2013-01-13 17:22:00,
2013-01-13 12:33:00,30.0,30.0,29.91,North,359,0.0,0.0,100,0.03,,,-99.99,,2013-01-13 17:33:00,
2013-01-13 12:43:00,30.0,30.0,29.91,North,359,0.0,0.0,100,0.03,,,-99.99,,2013-01-13 17:43:00,
2013-01-13 12:53:00,30.0,30.0,29.91,North,359,0.0,0.0,100,0.03,,,-99.99,,2013-01-13 17:53:00,
2013-01-13 13:10:00,30.0,30.0,29.91,North,359,0.0,0.0,100,0.03,,,-99.99,,2013-01-13 18:10:00,
2013-01-13 13:23:00,30.0,30.0,29.92,North,359,0.0,0.0,100,0.03,,,-99.99,,2013-01-13 18:23:00,
2013-01-13 13:33:00,30.0,30.0,29.91,North,359,0.0,0.0,100,0.03,,,-99.99,,2013-01-13 18:33:00,
2013-01-13 13:43:00,30.0,30.0,29.91,North,359,0.0,0.0,100,0.03,,,-99.99,,2013-01-13 18:43:00,
2013-01-13 13:53:00,30.0,30.0,29.91,North,359,0.0,0.0,100,0.03,,,-99.99,,2013-01-13 18:53:00,
2013-01-13 14:03:00,30.0,30.0,29.91,North,359,0.0,0.0,100,0.03,,,-99.99,,2013-01-13 19:03:00,
2013-01-13 14:23:00,30.0,30.0,29.88,North,359,0.0,0.0,100,0.03,,,-99.99,,2013-01-13 19:23:00,
2013-01-13 14:33:00,30.0,30.0,29.91,North,359,0.0,0.0,100,0.03,,,-99.99,,2013-01-13 19:33:00,
2013-01-13 14:43:00,30.0,30.0,29.91,North,359,0.0,0.0,100,0.03,,,-99.99,,2013-01-13 19:43:00,
2013-01-13 14:53:00,30.0,30.0,29.91,North,359,0.0,0.0,100,0.03,,,-99.99,,2013-01-13 19:53:00,
2013-01-13 15:03:00,30.0,30.0,29.93,North,359,0.0,0.0,100,0.03,,,-99.99,,2013-01-13 20:03:00,
2013-01-13 15:12:00,30.0,30.0,29.93,North,359,0.0,0.0,100,0.03,,,-99.99,,2013-01-13 20:12:00,
2013-01-13 15:22:00,30.0,30.0,29.94,North,359,0.0,0.0,100,0.03,,,-99.99,,2013-01-13 20:22:00,
2013-01-13 15:33:00,29.0,29.0,29.94,North,359,0.0,0.0,100,0.03,,,-99.99,,2013-01-13 20:33:00,
2013-01-13 15:43:00,29.0,29.0,29.94,North,359,0.0,0.0,100,0.03,,,-99.99,,2013-01-13 20:43:00,
2013-01-13 15:53:00,29.0,29.0,29.93,North,359,0.0,0.0,100,0.03,,,-99.99,,2013-01-13 20:53:00,
2013-01-13 16:03:00,29.0,29.0,29.90,North,359,0.0,0.0,100,0.03,,,-99.99,,2013-01-13 21:03:00,
2013-01-13 16:13:00,29.0,29.0,29.90,North,359,0.0,0.0,100,0.03,,,-99.99,,2013-01-13 21:13:00,
2013-01-13 16:23:00,28.0,28.0,29.91,North,359,0.0,0.0,100,0.03,,,-99.99,,2013-01-13 21:23:00,
2013-01-13 16:33:00,28.0,28.0,29.91,North,359,0.0,0.0,100,0.03,,,-99.99,,2013-01-13 21:33:00,
2013-01-13 16:43:00,28.0,28.0,29.91,North,359,0.0,0.0,100,0.03,,,-99.99,,2013-01-13 21:43:00,
2013-01-13 16:53:00,28.0,28.0,29.93,North,359,0.0,0.0,100,0.03,,,-99.99,,2013-01-13 21:53:00,
2013-01-13 17:03:00,28.0,28.0,29.93,North,359,0.0,0.0,100,0.03,,,-99.99,,2013-01-13 22:03:00,
2013-01-13 17:13:00,28.0,28.0,29.93,North,359,0.0,0.0,100,0.03,,,-99.99,,2013-01-13 22:13:00,
2013-01-13 17:23:00,28.0,28.0,29.93,North,359,0.0,0.0,100,0.03,,,-99.99,,2013-01-13 22:23:00,
2013-01-13 17:33:00,28.0,28.0,29.93,North,359,0.0,0.0,100,0.03,,,-99.99,,2013-01-13 22:33:00,
2013-01-13 17:43:00,28.0,28.0,29.93,North,359,0.0,0.0,100,0.03,,,-99.99,,2013-01-13 22:43:00,
2013-01-13 17:53:00,28.0,28.0,29.93,North,359,0.0,0.0,100,0.03,,,-99.99,,2013-01-13 22:53:00,
2013-01-13 18:03:00,27.0,27.0,29.94,North,359,0.0,0.0,100,0.03,,,-99.99,,2013-01-13 23:03:00,
2013-01-13 18:12:00,27.0,27.0,29.94,North,359,0.0,0.0,100,0.03,,,-99.99,,2013-01-13 23:12:00,
2013-01-13 18:23:00,27.0,27.0,29.95,North,359,0.0,0.0,100,0.03,,,-99.99,,2013-01-13 23:23:00,
2013-01-13 18:33:00,27.0,27.0,29.95,North,359,0.0,0.0,100,0.03,,,-99.99,,2013-01-13 23:33:00,
2013-01-13 18:43:00,27.0,27.0,29.95,North,359,0.0,0.0,100,0.03,,,-99.99,,2013-01-13 23:43:00,
2013-01-13 18:53:00,27.0,27.0,29.96,North,359,0.0,0.0,100,0.03,,,-99.99,,2013-01-13 23:53:00,
2013-01-13 19:03:00,27.0,27.0,29.96,North,359,0.0,0.0,100,0.03,,,-99.99,,2013-01-14 00:03:00,
2013-01-13 19:13:00,27.0,27.0,29.96,North,359,0.0,0.0,100,0.03,,,-99.99,,2013-01-14 00:13:00,
2013-01-13 19:23:00,27.0,27.0,29.96,North,359,0.0,0.0,100,0.03,,,-99.99,,2013-01-14 00:23:00,
2013-01-13 19:33:00,26.0,26.0,29.99,North,359,0.0,0.0,100,0.03,,,-99.99,,2013-01-14 00:33:00,
2013-01-13 19:43:00,26.0,26.0,29.99,North,359,0.0,0.0,100,0.03,,,-99.99,,2013-01-14 00:43:00,
2013-01-13 19:52:00,26.0,26.0,29.99,North,359,0.0,0.0,100,0.03,,,-99.99,,2013-01-14 00:52:00,
2013-01-13 20:03:00,26.0,26.0,30.00,North,359,0.0,0.0,99,0.03,,,-99.99,,2013-01-14 01:03:00,
2013-01-13 20:12:00,26.0,26.0,30.00,North,359,0.0,0.0,99,0.03,,,-99.99,,2013-01-14 01:12:00,
2013-01-13 20:22:00,26.0,26.0,30.00,North,359,0.0,0.0,99,0.03,,,-99.99,,2013-01-14 01:22:00,
2013-01-13 20:33:00,26.0,26.0,30.00,North,359,0.0,0.0,99,0.03,,,-99.99,,2013-01-14 01:33:00,
2013-01-13 20:42:00,26.0,26.0,30.00,North,359,0.0,0.0,99,0.03,,,-99.99,,2013-01-14 01:42:00,
2013-01-13 20:53:00,26.0,26.0,30.00,North,359,0.0,0.0,98,0.03,,,-99.99,,2013-01-14 01:53:00,
2013-01-13 21:03:00,26.0,26.0,30.01,North,359,0.0,0.0,98,0.03,,,-99.99,,2013-01-14 02:03:00,
2013-01-13 21:12:00,26.0,26.0,30.01,North,359,0.0,0.0,98,0.03,,,-99.99,,2013-01-14 02:12:00,
2013-01-13 21:22:00,26.0,25.0,30.01,North,359,0.0,0.0,97,0.03,,,-99.99,,2013-01-14 02:22:00,
2013-01-13 21:33:00,26.0,25.0,30.01,North,359,0.0,0.0,97,0.03,,,-99.99,,2013-01-14 02:33:00,
2013-01-13 21:42:00,26.0,25.0,30.01,North,359,0.0,0.0,97,0.03,,,-99.99,,2013-01-14 02:42:00,
2013-01-13 21:53:00,25.0,24.0,30.02,North,359,0.0,0.0,97,0.03,,,-99.99,,2013-01-14 02:53:00,
2013-01-13 22:03:00,25.0,24.0,30.03,North,359,0.0,0.0,96,0.03,,,-99.99,,2013-01-14 03:03:00,
2013-01-13 22:12:00,25.0,24.0,30.03,North,359,0.0,0.0,96,0.03,,,-99.99,,2013-01-14 03:12:00,
2013-01-13 22:22:00,25.0,24.0,30.03,North,359,0.0,0.0,96,0.03,,,-99.99,,2013-01-14 03:22:00,
2013-01-13 22:33:00,24.0,23.0,30.03,North,359,0.0,0.0,96,0.03,,,-99.99,,2013-01-14 03:33:00,
2013-01-13 22:42:00,24.0,23.0,30.03,North,359,0.0,0.0,96,0.03,,,-99.99,,2013-01-14 03:42:00,
2013-01-13 22:53:00,24.0,23.0,30.04,North,359,0.0,0.0,96,0.03,,,-99.99,,2013-01-14 03:53:00,
2013-01-13 23:03:00,24.0,23.0,30.04,North,359,0.0,0.0,95,0.03,,,-99.99,,2013-01-14 04:03:00,
2013-01-13 23:12:00,24.0,23.0,30.04,North,359,0.0,0.0,95,0.03,,,-99.99,,2013-01-14 04:12:00,
2013-01-13 23:22:00,23.0,22.0,30.05,North,359,0.0,0.0,96,0.03,,,-99.99,,2013-01-14 04:22:00,
2013-01-13 23:32:00,23.0,22.0,30.06,North,359,0.0,0.0,96,0.03,,,-99.99,,2013-01-14 04:32:00,
2013-01-13 23:42:00,23.0,22.0,30.06,North,359,0.0,0.0,96,0.03,,,-99.99,,2013-01-14 04:42:00,
2013-01-13 23:53:00,23.0,22.0,30.07,North,359,0.0,0.0,96,0.03,,,-99.99,,2013-01-14 04:53:00,